ALLMENDG1 Weather Reports


Display with metric or nautical units.
time (UTC)temp
F
wind
direction
speed
MPH
gust
MPH
rain 1hr
in
rain 24hr
in
rain mn
in
humidity
%
barometer
mb
20260503220212 55 54 0.0 0.0 0.00 0.00 0.00 65 1013.9
20260503213210 58 54 0.0 0.0 0.00 0.00 0.00 60 1013.6
20260503210211 61 32 2.0 0.0 0.00 0.00 0.00 51 1013.4
20260503203209 62 281 0.0 0.0 0.00 0.00 0.00 49 1012.9
20260503200211 63 261 5.0 0.0 0.00 0.00 0.00 48 1012.6
20260503193210 65 276 3.0 0.0 0.00 0.00 0.00 51 1012.2
20260503190210 67 252 4.0 0.0 0.00 0.00 0.00 53 1011.7
20260503183209 69 273 3.0 0.0 0.00 0.00 0.00 48 1011.3
20260503180210 71 31 2.0 0.0 0.00 0.00 0.00 45 1011.2
20260503173209 72 142 3.0 0.0 0.00 0.00 0.00 44 1011.0
20260503170211 73 240 3.0 0.0 0.00 0.00 0.00 40 1011.1
20260503160211 78 138 10.0 0.0 0.00 0.00 0.00 35 1010.6
20260503150209 78 253 9.0 0.0 0.00 0.00 0.00 31 1010.8
20260503140210 78 188 4.0 0.0 0.00 0.00 0.00 31 1011.3
20260503130210 75 218 5.0 0.0 0.00 0.00 0.00 35 1012.1
20260503120210 76 182 9.0 0.0 0.00 0.00 0.00 35 1012.6
20260503110210 75 55 11.0 0.0 0.00 0.00 0.00 31 1013.0
20260503100212 75 75 15.0 0.0 0.00 0.00 0.00 33 1013.8
20260503090210 71 194 4.0 0.0 0.00 0.00 0.00 42 1014.3
20260503080212 63 251 5.0 0.0 0.00 0.00 0.00 58 1014.6
20260503070211 57 224 3.0 0.0 0.00 0.00 0.00 70 1014.7
20260503060211 49 49 1.0 0.0 0.00 0.00 0.00 86 1014.8
20260503053211 43 49 0.0 0.0 0.00 0.00 0.00 90 1014.9
20260503050212 41 53 0.0 0.0 0.00 0.00 0.00 88 1014.9
20260503043211 41 53 1.0 0.0 0.00 0.00 0.00 86 1015.1
20260503040210 41 46 0.0 0.0 0.00 0.00 0.00 85 1014.8
20260503033211 42 46 0.0 0.0 0.00 0.00 0.00 84 1014.7
20260503030211 43 46 0.0 0.0 0.00 0.00 0.00 83 1014.8
20260503023211 44 46 0.0 0.0 0.00 0.00 0.00 82 1014.9
20260503020211 45 46 0.0 0.0 0.00 0.00 0.00 81 1015.1
20260503013211 45 46 0.0 0.0 0.00 0.00 0.00 80 1015.2
20260503010211 46 46 0.0 0.0 0.00 0.00 0.00 80 1015.3
20260503003209 46 46 0.0 0.0 0.00 0.00 0.00 81 1015.6
20260503000211 46 46 0.0 0.0 0.00 0.00 0.00 80 1015.7
20260502233210 47 46 0.0 0.0 0.00 0.00 0.00 80 1015.9
20260502230209 47 46 0.0 0.0 0.00 0.00 0.00 78 1016.1
20260502223211 48 45 1.0 0.0 0.00 0.00 0.00 76 1016.2